Regional Weather Roundup
Issued by NWS Green Bay, WI

Home | Current Version | Previous Version | Text Only | Print | Product List | Glossary On
Versions: 1 2 3 4 5 6 7 8 9 10 11 12 13 14 15 16 17 18 19 20 21 22 23 24 25 26 27 28 29 30 31 32 33 34 35 36 37 38 39 40 41 42 43 44 45 46 47 48 49 50
000
ASUS43 KGRB 140111
RWRGRB

NORTH-CENTRAL AND NORTHEAST WISCONSIN REGIONAL WEATHER ROUNDUP
NATIONAL WEATHER SERVICE GREEN BAY WI
700 PM CST SAT FEB 13 2016

WIZ005-009-010>012-018-019-140200-
NORTH CENTRAL WISCONSIN

CITY           SKY/WX    TMP DP  RH WIND       PRES   REMARKS
IRONWOOD       CLOUDY    -6  -8  92 CALM      30.37S
MANITOWISH WTR CLOUDY    -7 -12  78 CALM      30.35S
ARBOR VITAE    CLOUDY    -1  -9  68 CALM      30.35F
EAGLE RIVER    CLOUDY    -4 -12  70 CALM      30.35S
LAND O LAKES   CLOUDY    -7 -11  82 SW3       30.36S
RHINELANDER    CLOUDY    -2 -13  59 CALM      30.36F
PHILLIPS       CLOUDY     0 -13  54 CALM      30.37S
ANTIGO         CLOUDY     1  -9  61 CALM      30.39R
TOMAHAWK       CLOUDY    -5 -13  69 CALM      30.38S
MERRILL        CLOUDY     1 -10  59 CALM      30.41F
$$

WIZ013-073-140200-
NORTHEAST WISCONSIN

CITY           SKY/WX    TMP DP  RH WIND       PRES   REMARKS
IRON MOUNTAIN  CLEAR     -3 -11  68 CALM      30.39S
MARINETTE      CLEAR      7  -8  51 CALM      30.46S
OCONTO         CLEAR      7  -7  54 SW3       30.47S
$$

WIZ017-030-035>037-045-140200-
CENTRAL WISCONSIN

CITY           SKY/WX    TMP DP  RH WIND       PRES   REMARKS
MEDFORD        CLOUDY    -6 -14  70 CALM      30.38S
WAUSAU         CLOUDY     3 -10  54 CALM      30.41S
MOSINEE        CLEAR      1 -11  55 VRB3      30.42F
MARSHFIELD     CLOUDY     2 -12  52 E3        30.39F
WISC RAPIDS    CLOUDY     0 -10  63 CALM      30.45F
STEVENS POINT  CLOUDY    -2 -12  63 CALM      30.44F
WAUPACA        PTCLDY     6 -10  47 CALM      30.46F
SHAWANO        CLEAR      9  -6  50 CALM      30.46S
CLINTONVILLE   CLOUDY     5  -8  56 SW5       30.46S WCI  -4
WAUTOMA        CLOUDY     0 -12  56 CALM      30.47F
$$

WIZ038-039-048-051-140200-
FOX VALLEY

CITY           SKY/WX    TMP DP  RH WIND       PRES   REMARKS
NWS GREEN BAY  CLOUDY     6  -7  54 SW5       30.47F WCI  -3
APPLETON       PTCLDY     7 -11  43 SW5       30.44F WCI  -2
OSHKOSH        CLOUDY     2  -9  60 S5        30.46F WCI  -8
FOND DU LAC    CLOUDY     5  -8  55 S3        30.47F
$$

WIZ022-050-052-140200-
EAST CENTRAL WISCONSIN

CITY           SKY/WX    TMP DP  RH WIND       PRES   REMARKS
EPHRAIM        FAIR       6  -6  58 SW5       30.45S WCI  -3
STURGEON BAY   CLEAR      7  -8  51 SW6       30.48S WCI  -3
MANITOWOC      CLEAR      4  -7  60 SW3       30.49F
SHEBOYGAN      CLEAR      3  -6  66 CALM      30.48F
$$

LMZ563-521-522-541>543-140200-
LAKESHORE

STATION/POSITION TIME  TEMP    WIND        PRES    VSBY  WAVE
                       AIR SEA DIR/SP/G                  HT/PER
                 (UTC) (F)     (DEG/KT/KT) (MB)    (MI)  (FT/S)
SHEBOYGAN LKSHOR 0100    9     260/  7/  8 1034.4F
KEWAUNEE LKSHORE 0000    8                 1031.5F
ALGOMA MARINA    0011             CALM       N/A
SISTER BAY LKSHO 0019    6        CALM       N/A
CHAMBERS ISLAND  0000    8     180/  3/  7 1031.5S
MENOMINEE LKSHOR 0000    9                 1030.4R
$$



USA.gov is the U.S. government's official web portal to all federal, state and local government web resources and services.